Location: Lanoux
(43.1180°N, 1.4255°E)
Time: 02:32:53
(UTC+00:00)

Meteor 2-10 - Pass Details

Date: 14 March 2026
Orbit: 736 x 866 km, 81.2° (Epoch: 13 April)

Event Time Altitude Azimuth Distance (km) Brightness Sun altitude
Rises 19:06:53 0° 192° (SSW) 3,321 7.3 -13.1°
Reaches altitude 10° 19:09:18 10° 193° (SSW) 2,374 6.6 -13.5°
Maximum altitude 19:14:40 79° 281° (W) 802 4.2 -14.5°
Drops below altitude 10° 19:19:52 10° 8° (N) 2,307 6.5 -15.4°
Sets 19:22:11 0° 9° (N) 3,221 7.3 -15.8°
